This is the latest recevied weather packets stored in our database for station/object 4S6DRJ-13. If no packets are shown the sender has not sent any weather packets the latest 10 day(s).
| Time | Temp. | Humidity | Pressure | Rain* | Wind** | Luminosity | Snow |
|---|---|---|---|---|---|---|---|
| 1788116075 | 27.78° C | 84% | 1010.5 hPa | 0 mm | 1.34 m/s, 238° | 0 W/m² | - |
| 1788116013 | 27.78° C | 84% | 1010.4 hPa | 0 mm | 1.79 m/s, 234° | 0 W/m² | - |
| 1788115953 | 27.78° C | 84% | 1010.4 hPa | 0 mm | 0.89 m/s, 257° | 0 W/m² | - |
| 1788115892 | 27.78° C | 84% | 1010.4 hPa | 0 mm | 0.89 m/s, 234° | 0 W/m² | - |
| 1788115831 | 27.78° C | 84% | 1010.4 hPa | 0 mm | 1.34 m/s, 288° | 0 W/m² | - |
| 1788115770 | 27.78° C | 84% | 1010.5 hPa | 0 mm | 1.34 m/s, 199° | 0 W/m² | - |
| 1788115709 | 27.78° C | 84% | 1010.2 hPa | 0 mm | 0.45 m/s, 336° | 0 W/m² | - |
| 1788115648 | 27.78° C | 84% | 1010.2 hPa | 0 mm | 1.34 m/s, 217° | 0 W/m² | - |
| 1788115587 | 27.78° C | 84% | 1010.4 hPa | 0 mm | 0.89 m/s, 243° | 0 W/m² | - |
| 1788115526 | 27.78° C | 85% | 1010.4 hPa | 0 mm | 0.89 m/s, 234° | 0 W/m² | - |
| 1788115465 | 27.78° C | 85% | 1010.5 hPa | 0 mm | 1.34 m/s, 27° | 0 W/m² | - |
| 1788115404 | 27.78° C | 85% | 1010.5 hPa | 0 mm | 1.34 m/s, 229° | 0 W/m² | - |
| 1788115343 | 27.78° C | 85% | 1010.4 hPa | 0 mm | 0 m/s | 0 W/m² | - |
| 1788115282 | 27.78° C | 85% | 1010.5 hPa | 0 mm | 0.89 m/s, 267° | 0 W/m² | - |
| 1788115222 | 27.78° C | 85% | 1010.4 hPa | 0 mm | 0.45 m/s, 250° | 0 W/m² | - |
| 1788115160 | 27.78° C | 85% | 1010.6 hPa | 0 mm | 1.79 m/s, 229° | 0 W/m² | - |
| 1788115099 | 27.78° C | 85% | 1010.4 hPa | 0 mm | 0 m/s | 0 W/m² | - |
| 1788115038 | 27.78° C | 85% | 1010.4 hPa | 0 mm | 0.45 m/s, 234° | 0 W/m² | - |
| 1788114977 | 27.78° C | 85% | 1010.4 hPa | 0 mm | 1.34 m/s, 283° | 0 W/m² | - |
| 1788114916 | 27.78° C | 85% | 1010.7 hPa | 0 mm | 0.89 m/s, 257° | 0 W/m² | - |
| 1788114855 | 27.78° C | 85% | 1010.6 hPa | 0 mm | 0.45 m/s, 255° | 0 W/m² | - |
| 1788114794 | 27.78° C | 85% | 1010.5 hPa | 0 mm | 0.45 m/s, 146° | 0 W/m² | - |
| 1788114733 | 27.78° C | 85% | 1010.3 hPa | 0 mm | 0.89 m/s, 215° | 0 W/m² | - |
| 1788114672 | 28.33° C | 85% | 1010.5 hPa | 0 mm | 1.79 m/s, 256° | 0 W/m² | - |
| 1788114611 | 28.33° C | 85% | 1010.5 hPa | 0 mm | 0.89 m/s, 211° | 0 W/m² | - |
* Rain latest hour (hover to see other rain measurements)
** Current wind speed in m/s (hover to see current wind gust speed)